Погода в Новом Белом Яре

Россия / Ульяновская область     53°58′28″N   48°58′12″E
В апреле 2022 года жителям России запретили посещать сайт meteo.paraplan.net по решению Генеральной прокуратуры. Аудитория сайта уменьшилась в 10 раз. Владельцы сайта не видят смысла в поддержке погодного сервера в таких условиях. Сайт будет закрыт в октябре.
темп.,
°C
ветер,
м/с
пор.,
м/с
влажн.,
%
обл.,
%
осадки,
мм/ч
давл.,
гПа
погр.,
м
3 октября, пн
пн301:00+14ю7158887 0.5 1013404
04:00+14ююв8157899 1.2 1014422
07:00+13ююв8167198 0.0 1014430
10:00+14ююв9176055 0.0 1015586
13:00+17ююв10164980 0.0 1016725
16:00+17ююв10164696 0.0 1016788
19:00+15ююв91646100 0.0 1018633
22:00+15ююв91645100 0.0 1019610
4 октября, вт
вт401:00+14ююв81545100 0.0 1020512
04:00+13ююв71346100 0.0 1021481
07:00+12ю61260100 0.1 1022607
10:00+12ююв71253100 0.6 1023510
13:00+13ююв6114578 0.0 1024477
16:00+15ююв7124494 0.0 1024673
19:00+14ю61247100 0.0 1024362
22:00+12юв2258100 0.1 102423
5 октября, ср
ср501:00+13ююв81539100 0.0 1024571
04:00+11ююв81267100 0.0 1025679
07:00+11ююв7116347 0.0 1024610
10:00+12ююв6115199 0.0 1023515
13:00+14ююв8124592 0.0 1022613
16:00+13ю91350100 0.0 1021666
19:00+12ю91364100 0.1 1021691
22:00+11ю81288100 0.1 1020575
6 октября, чт
чт601:00+11ю7108979 0.0 1019505
04:00+10ююз488874 0.0 1018238
07:00+9юз35926 0.0 1018138
10:00+12зюз357074 0.0 1017522
13:00+12з566488 0.5 1016747
16:00+11сз676199 0.9 1016837
19:00+8зсз47715 0.0 1018324
22:00+8з3673100 0.0 1017441
7 октября, пт
пт701:00+8з346799 0.0 1017300
04:00+7зюз35737 0.0 1017136
07:00+8ююз5879100 0.0 1015380
10:00+9юз61192100 1.5 1013583
13:00+12з71284100 0.3 1014721
16:00+12з6108196 0.3 1015769
19:00+12зсз61069100 0.0 1016614
22:00+11зсз71275100 0.1 1017830